Orient Glider Airport

Jump to: basic info | weather | comments

Related pages: nearby airports | nearby navaids | notams | map

Basic information (top)

Codes: FAOI
Location: lon -26.039400, lat 27.595600, elev 5,102 ft / 1,555 m msl
Status: small_airport

Weather (top)

Current conditions for Lanseria Airport 19nm (35km) ENE (rec'd 2014/10/23 08:00Z):

FALA 230800Z 04009KT 340V080 CAVOK 21/11 Q1023 NOSIG

Airport forecast for Lanseria Airport 19nm (35km) ENE (rec'd 2014/10/22 00:00Z):

TAF FALA 222200Z 2300/2324 05008KT CAVOK PROB40 
      TEMPO 2302/2306 5000 BR BKN008 
      BECMG 2307/2309 31011KT SCT045 
      TEMPO 2313/2318 25015G25KT 5000 TSRA FEW040CB 
     FM231900 28007KT 9999 SCT045 TX30/2313ZTN14/2303Z

Latest comments (top)

Runway Orientation and Airfield Frequency: Runway 36/18 (Main) Runway 11/29 Airfi ... [read]

More... (top)

See also NOTAMs and nearby airports and navaids, or visit the Orient Glider Airport page at the main OurAirports website..